DECAYED

OBJECT AB, 57029 (Decayed)

Orbit data source: Space-Track

You're viewing an Uncataloged Satellite

Recently launched and/or uncataloged satellites may have evolving metadata. Metadata may include but not limited to: Owner, Maufacturer, Bus, Motor, and Mission.

OBJECT AB, 57029 was a Chinese satellite in LEO that was launched on Thu, 15 Jun 2023 UTC via a CHANG ZHENG 2D launch vehicle from the Taiyaun Space Center, China (TSC). Unknown objects in Earth's orbit typically refer to objects detected orbiting the Earth but have not yet been identified or cataloged. These objects could be anything from previously untracked satellites, spent rocket stages, debris from satellite collisions, or even natural meteoroids temporarily captured by Earth's gravity. This object's orbit decayed before it could be identified.

Not visible in the next 10 days
Identifier
57029, 2023-085AB
Orbit
Decayed
Country
Flag of CNCN / PRC
Related business
None
Manufacturer
Unknown
Mission
Decayed Commercial Imaging
Bus & Motor
Unknown
Mass
Unknown
Launch date (UTC)
2023-06-15 (3 years ago)
Launch vehicle
CHANG ZHENG 2D
Launch site
Taiyaun Space Center, China (TSC)
Object type
Unknown
Shape & HBR
Box, 0.8 m
Radar Cross Section
2.000 m², Medium (>0.1 m² and < 1m²)

Expand to show TLE details & history
Last TLE update: 9 months ago

TLE from 9 months ago
0 OBJECT AB
1 57029U 23085AB  25274.96169507  .10608348  25488-5  14549-2 0  9991
2 57029  97.4477  37.9454 0010927 269.0218  90.9827 16.35088328128451
Epoch: 2025-10-01T23:04Z
TLE epoch observation values (Epoch: 2025-10-01T23:04:50.454Z)
Latitude
0.00003°
Longitude
40.80598°
Altitude
182.275 km
Speed
7.797 km/s
True Right ascension
02h 31m 46s
True Declination
0° 00' 00"
Sunlit
Object was in full shadow at epoch
Visualization orbit readout
Latitude
Unknown
Longitude
Unknown
Altitude
Unknown
Speed
Unknown
Apparent Right ascension
Unknown
Apparent Declination
Unknown
Sunlit
N/A
Visualization observer readout
Local Sidereal Time
21:31:20
Azimuth
Unknown
Elevation
Unknown
Doppler factor
Unknown
Orbital elements
Apogee altitude
182.878 km
Perigee altitude
168.556 km
Semi-major axis
6,553.854 km
Eccentricity
0.00109
Inclination
97.4477°
RAAN
37.9454°
Arg. of periapsis
269.0218°
True anomaly
91.10789°
Mean anomaly
90.9827°
Eccentric anomaly
91.0453°
Mean motion
4.0907 °/min
Orbital period
88 mins
BSTAR
0.0014549
Loading maneuver chart data...
Computing Atmospheric mass density...
Loading historical data...
Loading historical data...
Loading historical data...
Loading historical data...
Loading historical data...
Loading historical data...
Loading historical data...

Documentation

Showing up to 5 results
|